NPV1459 KPDX-KSLC

Flight info

Callsign NPV1459
Flight time N/A
Altitude 35000
Route WHAMY5 IMB J15 BOI BYI SKEES6
Aircraft A321/M-SDE3FGHIRWY/LB1

Departure

Time 2026-05-01 14:48
Airport Portland International Airport (KPDX)

Arrival

Time N/A
Airport Salt Lake City International Airport (KSLC)
Time Latitude Longitude Altitude Speed Heading
2026-05-01 14:17 45.58818 -122.59589 28 ft 0 kts 19°
2026-05-01 14:40 45.58804 -122.59596 29 ft 4 kts 18°
2026-05-01 14:40 45.58783 -122.59607 29 ft 2 kts 28°
2026-05-01 14:40 45.58764 -122.59623 29 ft 4 kts 42°
2026-05-01 14:40 45.58755 -122.59647 29 ft 4 kts 100°
2026-05-01 14:41 45.58764 -122.59679 29 ft 4 kts 119°
2026-05-01 14:41 45.58777 -122.59713 29 ft 3 kts 119°
2026-05-01 14:41 45.58779 -122.59718 29 ft 0 kts 119°
2026-05-01 14:43 45.58779 -122.59717 29 ft 1 kts 119°
2026-05-01 14:43 45.58729 -122.59684 29 ft 15 kts 181°
2026-05-01 14:44 45.58650 -122.59611 29 ft 14 kts 121°
2026-05-01 14:44 45.58565 -122.59385 28 ft 12 kts 118°
2026-05-01 14:44 45.58524 -122.59280 28 ft 13 kts 119°
2026-05-01 14:45 45.58464 -122.59127 28 ft 21 kts 117°
2026-05-01 14:45 45.58328 -122.58781 29 ft 19 kts 119°
2026-05-01 14:45 45.58265 -122.58620 29 ft 18 kts 119°
2026-05-01 14:46 45.58205 -122.58468 29 ft 17 kts 119°
2026-05-01 14:46 45.58074 -122.58436 29 ft 9 kts 281°
2026-05-01 14:46 45.58100 -122.58506 29 ft 7 kts 301°
2026-05-01 14:47 45.58141 -122.58611 30 ft 24 kts 298°
2026-05-01 14:47 45.58338 -122.59117 28 ft 91 kts 298°
2026-05-01 14:47 45.58739 -122.60147 29 ft 143 kts 298°
2026-05-01 14:48 45.59882 -122.62969 807 ft 165 kts 302°
2026-05-01 14:48 45.60492 -122.64363 1402 ft 166 kts 302°
2026-05-01 14:48 45.61708 -122.67171 2478 ft 167 kts 301°
2026-05-01 14:49 45.62919 -122.70079 3280 ft 182 kts 301°
2026-05-01 14:49 45.64310 -122.73525 3728 ft 216 kts 300°
2026-05-01 14:50 45.65633 -122.76823 4018 ft 247 kts 300°
2026-05-01 14:50 45.66844 -122.82719 5134 ft 277 kts 266°
2026-05-01 14:51 45.66530 -122.85431 5905 ft 277 kts 251°
2026-05-01 14:51 45.65038 -122.90452 7434 ft 275 kts 224°
2026-05-01 14:52 45.61623 -122.92354 8928 ft 273 kts 173°
2026-05-01 14:52 45.59772 -122.91698 9680 ft 275 kts 164°
2026-05-01 14:52 45.56109 -122.89929 10887 ft 289 kts 154°
2026-05-01 14:53 45.54427 -122.88212 11020 ft 314 kts 138°
2026-05-01 14:53 45.53046 -122.85653 11164 ft 339 kts 120°
2026-05-01 14:53 45.52069 -122.82529 11624 ft 349 kts 116°
2026-05-01 14:53 45.51100 -122.79336 12238 ft 353 kts 116°
2026-05-01 14:54 45.50103 -122.76112 12871 ft 357 kts 116°
2026-05-01 14:54 45.49086 -122.72859 13491 ft 361 kts 116°
2026-05-01 14:54 45.48054 -122.69573 14085 ft 365 kts 116°
2026-05-01 14:54 45.47013 -122.66254 14639 ft 369 kts 116°
2026-05-01 14:55 45.45962 -122.62895 15182 ft 373 kts 116°
2026-05-01 14:55 45.44902 -122.59502 15725 ft 377 kts 116°
2026-05-01 14:55 45.43834 -122.56075 16261 ft 380 kts 116°
2026-05-01 14:55 45.42754 -122.52613 16806 ft 384 kts 116°
2026-05-01 14:56 45.41664 -122.49125 17333 ft 388 kts 116°
2026-05-01 14:56 45.40560 -122.45606 17860 ft 391 kts 116°
2026-05-01 14:56 45.39440 -122.42051 18367 ft 395 kts 116°
2026-05-01 14:56 45.38311 -122.38469 18815 ft 398 kts 116°
2026-05-01 14:57 45.37170 -122.34860 19260 ft 401 kts 116°
2026-05-01 14:57 45.34888 -122.27638 20173 ft 405 kts 116°
2026-05-01 14:57 45.33728 -122.23969 20616 ft 408 kts 116°
2026-05-01 14:58 45.32562 -122.20283 21063 ft 410 kts 116°
2026-05-01 14:58 45.31388 -122.16580 21512 ft 413 kts 116°
2026-05-01 14:58 45.30200 -122.12850 21949 ft 415 kts 116°
2026-05-01 14:58 45.29004 -122.09099 22381 ft 418 kts 116°
2026-05-01 14:59 45.27804 -122.05328 22790 ft 420 kts 116°
2026-05-01 14:59 45.26595 -122.01540 23208 ft 423 kts 116°
2026-05-01 14:59 45.25377 -121.97723 23612 ft 426 kts 115°
2026-05-01 14:59 45.24234 -121.93829 23955 ft 429 kts 112°
2026-05-01 15:00 45.22204 -121.85804 24614 ft 435 kts 110°
2026-05-01 15:00 45.21228 -121.81731 24951 ft 437 kts 110°
2026-05-01 15:00 45.20236 -121.77649 25262 ft 439 kts 110°
2026-05-01 15:01 45.19218 -121.73547 25597 ft 442 kts 111°
2026-05-01 15:01 45.18176 -121.69440 25912 ft 444 kts 111°
2026-05-01 15:01 45.17111 -121.65318 26232 ft 447 kts 111°
2026-05-01 15:01 45.16031 -121.61176 26526 ft 449 kts 111°
2026-05-01 15:02 45.14941 -121.57005 26819 ft 452 kts 111°
2026-05-01 15:02 45.14218 -121.54238 27030 ft 454 kts 111°
2026-05-01 15:02 45.12758 -121.48652 27443 ft 457 kts 111°
2026-05-01 15:02 45.11651 -121.44414 27735 ft 459 kts 111°
2026-05-01 15:03 45.10542 -121.40160 28022 ft 462 kts 111°
2026-05-01 15:03 45.09430 -121.35891 28307 ft 464 kts 111°
2026-05-01 15:03 45.08308 -121.31588 28580 ft 466 kts 111°
2026-05-01 15:03 45.07178 -121.27277 28855 ft 468 kts 111°
2026-05-01 15:04 45.06041 -121.22947 29132 ft 470 kts 111°
2026-05-01 15:04 45.04898 -121.18603 29397 ft 473 kts 111°
2026-05-01 15:04 45.03746 -121.14235 29661 ft 475 kts 111°
2026-05-01 15:04 45.02588 -121.09854 29914 ft 477 kts 111°
2026-05-01 15:05 45.01423 -121.05458 30245 ft 477 kts 111°
2026-05-01 15:05 45.00259 -121.01070 30573 ft 476 kts 111°
2026-05-01 15:05 44.99098 -120.96694 30906 ft 476 kts 111°
2026-05-01 15:05 44.97933 -120.92317 31232 ft 475 kts 111°
2026-05-01 15:06 44.96769 -120.87950 31566 ft 475 kts 111°
2026-05-01 15:06 44.95607 -120.83590 31907 ft 474 kts 111°
2026-05-01 15:06 44.94444 -120.79237 32241 ft 473 kts 111°
2026-05-01 15:06 44.93281 -120.74896 32572 ft 473 kts 111°
2026-05-01 15:07 44.92132 -120.70615 32897 ft 472 kts 111°
2026-05-01 15:07 44.90967 -120.66285 33231 ft 472 kts 111°
2026-05-01 15:07 44.89799 -120.61955 33565 ft 471 kts 111°
2026-05-01 15:07 44.88634 -120.57641 33900 ft 470 kts 111°
2026-05-01 15:08 44.87470 -120.53335 34196 ft 470 kts 111°
2026-05-01 15:08 44.86307 -120.49032 34442 ft 470 kts 111°
2026-05-01 15:08 44.85141 -120.44724 34685 ft 471 kts 111°
2026-05-01 15:08 44.83970 -120.40413 34919 ft 471 kts 111°
2026-05-01 15:09 44.82793 -120.36095 35053 ft 472 kts 111°
2026-05-01 15:09 44.80446 -120.27516 35081 ft 467 kts 111°
2026-05-01 15:10 44.78103 -120.18987 35081 ft 467 kts 111°
2026-05-01 15:10 44.74581 -120.06225 35095 ft 466 kts 111°
2026-05-01 15:11 44.71079 -119.93541 35102 ft 466 kts 111°
2026-05-01 15:12 44.68721 -119.85062 35110 ft 466 kts 111°
2026-05-01 15:12 44.65168 -119.72349 35123 ft 466 kts 111°
2026-05-01 15:14 44.59035 -119.51261 35137 ft 467 kts 111°
2026-05-01 15:14 44.55314 -119.38618 35138 ft 467 kts 111°
2026-05-01 15:15 44.50375 -119.21838 35132 ft 468 kts 111°
2026-05-01 15:16 44.45365 -119.04994 35147 ft 469 kts 111°
2026-05-01 15:18 44.39070 -118.83954 35171 ft 469 kts 111°
2026-05-01 15:19 44.34019 -118.67200 35174 ft 469 kts 111°
2026-05-01 15:19 44.30201 -118.54618 35170 ft 469 kts 110°
2026-05-01 15:20 44.26368 -118.42042 35165 ft 469 kts 111°
2026-05-01 15:21 44.23805 -118.33676 35163 ft 469 kts 111°
2026-05-01 15:21 44.21669 -118.26718 35168 ft 469 kts 111°
2026-05-01 15:22 44.17815 -118.14197 35198 ft 468 kts 111°
2026-05-01 15:22 44.14830 -118.04532 35196 ft 466 kts 111°
2026-05-01 15:23 44.12670 -117.97594 35195 ft 466 kts 111°
2026-05-01 15:23 44.10090 -117.89323 35194 ft 466 kts 111°
2026-05-01 15:24 44.07532 -117.81121 35191 ft 465 kts 111°
2026-05-01 15:24 44.04946 -117.72872 35187 ft 465 kts 111°
2026-05-01 15:25 44.02351 -117.64628 35183 ft 465 kts 111°
2026-05-01 15:25 43.99761 -117.56397 35212 ft 464 kts 111°
2026-05-01 15:26 43.97174 -117.48206 35211 ft 463 kts 111°
2026-05-01 15:26 43.94580 -117.40044 35214 ft 462 kts 111°
2026-05-01 15:27 43.91987 -117.31908 35216 ft 461 kts 111°
2026-05-01 15:28 43.88092 -117.19724 35213 ft 460 kts 111°
2026-05-01 15:28 43.85492 -117.11615 35229 ft 460 kts 111°
2026-05-01 15:29 43.81585 -116.99478 35245 ft 460 kts 111°
2026-05-01 15:30 43.76367 -116.83382 35234 ft 457 kts 111°
2026-05-01 15:31 43.68560 -116.59441 35242 ft 455 kts 111°
2026-05-01 15:32 43.63332 -116.43518 35219 ft 455 kts 111°
2026-05-01 15:34 43.55462 -116.19800 35232 ft 452 kts 112°